Terminal Aerodrome Forecast
Issued by NWS Portland, OR

Home | Current Version | Previous Version | Text Only | Print | Product List | Glossary On
Versions: 1 2 3 4 5 6 7 8 9 10 11 12 13 14 15 16 17 18 19 20 21 22 23 24 25 26 27 28 29 30 31 32 33 34
000
FTUS46 KPQR 280117 AAA
TAFSLE
TAF AMD
KSLE 280117Z 2801/2824 17010KT 4SM -SHRA BR SCT007 BKN015 OVC025
     FM280300 19009KT P6SM -SHRA BKN015 OVC040
     FM280500 20008KT P6SM -SHRA SCT015 BKN040
     FM281300 20004KT 6SM BR VCSH FEW008 SCT015 BKN040
     FM281600 20008KT P6SM VCSH FEW015 BKN040=

USA.gov is the U.S. government's official web portal to all federal, state and local government web resources and services.